Mattoon, IL

4:07 PM CST on December 15, 2017 (GMT -0600)
Coles County Memorial

Weather History for KMTO - March, 2014

Change the Weather History Date:

Monday, March 3, 2014

  Actual Average Record
Temperature  
Mean Temperature 11 °F 38 °F  
Max Temperature 20 °F 47 °F 75 °F (1992)
Min Temperature 2 °F 29 °F 2 °F (2014)
Degree Days  
Heating Degree Days 54 27  
Month to date heating degree days 136 83  
Since 1 July heating degree days 4983 4287  
Cooling Degree Days 0 0  
Month to date cooling degree days 0 0  
Year to date cooling degree days 0 0  
Moisture  
Dew Point -1 °F    
Average Humidity 61    
Maximum Humidity 76    
Minimum Humidity 45    
Precipitation  
Precipitation 0.00 in 0.06 in 1.93 in (1953)
Month to date precipitation 0.08 0.17  
Year to date precipitation 2.01 4.15  
Sea Level Pressure  
Sea Level Pressure 30.43 in    
Wind  
Wind Speed 11 mph (NNE)    
Max Wind Speed 23 mph    
Max Gust Speed 29 mph    
Visibility 8 miles    
Events      
T = Trace of Precipitation, MM = Missing Value Source: NWS Daily Summary

Daily Weather History Graph

Daily Weather History Graph

Search for Another Location

Airport or City:

Trip Planner

Search our weather history database for the weather conditions in past years. The results will help you decide how hot, cold, wet, or windy it might be!

Date:

Astronomy

Mar. 03, 2014 Rise Set
Actual Time 6:23 AM CST 5:47 PM CST
Civil Twilight 5:56 AM CST 6:14 PM CST
Nautical Twilight 5:25 AM CST 6:45 PM CST
Astronomical Twilight 4:53 AM CST 7:16 PM CST
Moon 7:32 AM CST (3/3) 8:49 PM CST (3/3)
Length of Visible Light 12h 18m
Length of Day
11h 24m
Waxing Crescent, 8% of the Moon is Illuminated
Mar 3
Waxing Crescent
Mar 8
First Quarter
Mar 16
Full
Mar 23
Last Quarter
Mar 30
New

Hourly Weather History & Observations

Time (CST) Temp. Windchill Dew Point Humidity Pressure Visibility Wind Dir Wind Speed Gust Speed Precip Events Conditions
12:02 AM 6.1 °F -12.2 °F -2.0 °F 69% 30.34 in 5.0 mi North 16.1 mph - N/A   Haze
12:53 AM 6.1 °F -13.3 °F -2.0 °F 69% 30.38 in 5.0 mi North 18.4 mph - N/A   Haze
1:53 AM 6.1 °F -12.8 °F -2.0 °F 69% 30.36 in 5.0 mi North 17.3 mph - N/A   Haze
2:01 AM 6.1 °F -12.8 °F -2.9 °F 67% 30.32 in 5.0 mi North 17.3 mph 24.2 mph N/A   Haze
2:53 AM 5.0 °F -13.6 °F -4.0 °F 66% 30.37 in 5.0 mi North 16.1 mph - N/A   Haze
3:53 AM 5.0 °F -13.0 °F -5.1 °F 63% 30.39 in 6.0 mi North 15.0 mph - N/A   Haze
4:53 AM 3.0 °F -14.1 °F -6.0 °F 66% 30.41 in 6.0 mi North 12.7 mph - N/A   Haze
5:53 AM 3.0 °F -15.5 °F -6.0 °F 66% 30.43 in 6.0 mi North 15.0 mph - N/A   Haze
6:53 AM 3.0 °F -14.1 °F -7.1 °F 63% 30.46 in 4.0 mi North 12.7 mph - N/A   Haze
7:53 AM 5.0 °F -12.3 °F -4.0 °F 66% 30.48 in 5.0 mi North 13.8 mph - N/A   Haze
8:53 AM 8.1 °F -7.0 °F -2.0 °F 64% 30.50 in 5.0 mi NNE 11.5 mph - N/A   Haze
9:53 AM 10.0 °F -4.5 °F -0.9 °F 61% 30.50 in 10.0 mi NNE 11.5 mph - N/A   Clear
10:53 AM 12.9 °F -1.6 °F -0.0 °F 56% 30.50 in 10.0 mi NNE 12.7 mph - N/A   Clear
11:53 AM 15.1 °F 1.1 °F 1.9 °F 56% 30.49 in 10.0 mi NNE 12.7 mph - N/A   Clear
12:53 PM 17.1 °F 2.5 °F 1.9 °F 52% 30.48 in 10.0 mi NNE 15.0 mph - N/A   Clear
1:53 PM 19.0 °F 6.8 °F 1.9 °F 47% 30.47 in 10.0 mi NE 11.5 mph - N/A   Clear
2:53 PM 19.0 °F 5.0 °F 3.0 °F 50% 30.46 in 10.0 mi NNE 15.0 mph - N/A   Clear
3:53 PM 19.0 °F 5.6 °F 3.0 °F 50% 30.47 in 10.0 mi NNE 13.8 mph - N/A   Clear
4:53 PM 18.0 °F 5.4 °F 1.9 °F 50% 30.46 in 10.0 mi NE 11.5 mph - N/A   Clear
5:53 PM 15.1 °F 5.2 °F 1.9 °F 56% 30.45 in 10.0 mi NE 6.9 mph - N/A   Clear
6:53 PM 14.0 °F 5.1 °F 1.9 °F 59% 30.45 in 10.0 mi NE 5.8 mph - N/A   Clear
7:53 PM 12.9 °F 5.2 °F 1.9 °F 62% 30.44 in 10.0 mi NE 4.6 mph - N/A   Clear
8:53 PM 12.9 °F 3.8 °F 3.0 °F 65% 30.44 in 10.0 mi ENE 5.8 mph - N/A   Clear
9:53 PM 12.0 °F 2.7 °F 1.9 °F 64% 30.43 in 10.0 mi ENE 5.8 mph - N/A   Clear
10:53 PM 12.9 °F 6.9 °F 3.0 °F 65% 30.40 in 10.0 mi East 3.5 mph - N/A   Clear
11:53 PM 12.9 °F 3.8 °F 1.9 °F 62% 30.37 in 10.0 mi ESE 5.8 mph - N/A   Clear